User: anonymous   Login
Location: Unspecified
(0.0000°N, 0.0000°E)
Time: 01:02:16
(UTC+00:00)
Language:

Diademe D-1C - Orbit

View from above orbital plane
View from above orbital plane
View from above satellite
View from above satellite

Ground track
Ground track

The orbit data is extracted from the following two-line orbital elements,

1 02674U 67011A   21023.50733091  .00000266  00000-0  56544-4 0  9992
2 02674  39.9260  60.3548 0264699 234.0464 123.5492 14.55168601801625
Epoch (UTC): 23 January 2021 12:10:33
Eccentricity: 0.0264699
inclination: 39.9260°
perigee height: 521 km
apogee height: 896 km
right ascension of ascending node: 60.3548°
argument of perigee: 234.0464°
revolutions per day: 14.55168601
mean anomaly at epoch: 123.5492°
orbit number at epoch: 80162

The dashed part of the orbit path shows where the satellite is in the earth's shadow,  

DLR